{"data":{"norad_id":43024,"intl_designator":"2017-074C","name":"JILIN-1 06","alt_names":[],"object_type":"PAYLOAD","status":"ACTIVE","operator":null,"country":"PRC","launch_date":"2017-11-21","launch_site_code":"TAISC","launch_vehicle":null,"mission":null,"orbit_class":"UNKNOWN","rcs_meters":null,"size_class":null,"mass_kg":null,"dimensions":null,"purposes":[],"wikipedia_slug":null,"has_3d_model":false,"image_url":null,"decayed_at":null,"tle_current":{"epoch":"2026-09-20T04:30:50.066208Z","epoch_age_seconds":78597,"freshness":"FRESH","line1":"1 43024U 17074C   26263.18807947  .00004463  00000+0  13531-3 0  9997","line2":"2 43024  97.4825   7.6026 0005285 258.9418 101.1231 15.34655678488401","mean_motion":15.34655678,"eccentricity":0.0005285,"inclination_deg":97.4825,"raan_deg":7.6026,"arg_perigee_deg":258.9418,"mean_anomaly_deg":101.1231,"bstar":0.00013531,"rev_number":48840,"period_min":93.832122777967,"perigee_km":458.32843431634,"apogee_km":465.55839931691,"semimajor_km":6840.0804168166,"source":"CELESTRAK","updated_at":"2026-09-20T09:00:14.266187Z"}}}